Year,Month,Day,Hour,Minute,Value (Times are PST for temperature in C)
2015,04,08,00,00,5.70
2015,04,08,00,01,5.70
2015,04,08,00,02,5.70
2015,04,08,00,03,5.70
2015,04,08,00,04,5.70
2015,04,08,00,05,5.70
2015,04,08,00,06,5.70
2015,04,08,00,07,5.70
2015,04,08,00,08,5.70
2015,04,08,00,09,5.70
2015,04,08,00,10,5.70
2015,04,08,00,11,5.60
2015,04,08,00,12,5.70
2015,04,08,00,13,5.60
2015,04,08,00,14,5.60
2015,04,08,00,15,5.60
2015,04,08,00,16,5.60
2015,04,08,00,17,5.60
2015,04,08,00,18,5.60
2015,04,08,00,19,5.60
2015,04,08,00,20,5.60
2015,04,08,00,21,5.60
2015,04,08,00,22,5.60
2015,04,08,00,23,5.60
2015,04,08,00,24,5.60
2015,04,08,00,25,5.60
2015,04,08,00,26,5.60
2015,04,08,00,27,5.60
2015,04,08,00,28,5.50
2015,04,08,00,29,5.50
2015,04,08,00,30,5.50
2015,04,08,00,31,5.50
2015,04,08,00,32,5.40
2015,04,08,00,33,5.40
2015,04,08,00,34,5.40
2015,04,08,00,35,5.30
2015,04,08,00,36,5.30
2015,04,08,00,37,5.30
2015,04,08,00,38,5.30
2015,04,08,00,39,5.20
2015,04,08,00,40,5.20
2015,04,08,00,41,5.20
2015,04,08,00,42,5.20
2015,04,08,00,43,5.20
2015,04,08,00,44,5.10
2015,04,08,00,45,5.10
2015,04,08,00,46,5.10
2015,04,08,00,47,5.00
2015,04,08,00,48,5.00
2015,04,08,00,49,4.90
2015,04,08,00,50,4.90
2015,04,08,00,51,4.90
2015,04,08,00,52,4.90
2015,04,08,00,53,4.90
2015,04,08,00,54,4.80
2015,04,08,00,55,4.80
2015,04,08,00,56,4.80
2015,04,08,00,57,4.80
2015,04,08,00,58,4.80
2015,04,08,00,59,4.70
2015,04,08,01,00,4.70
2015,04,08,01,01,4.70
2015,04,08,01,02,4.70
2015,04,08,01,03,4.70
2015,04,08,01,04,4.70
2015,04,08,01,05,4.70
2015,04,08,01,06,4.60
2015,04,08,01,07,4.60
2015,04,08,01,08,4.60
2015,04,08,01,09,4.60
2015,04,08,01,10,4.60
2015,04,08,01,11,4.60
2015,04,08,01,12,4.50
2015,04,08,01,13,4.50
2015,04,08,01,14,4.50
2015,04,08,01,15,4.50
2015,04,08,01,16,4.50
2015,04,08,01,17,4.40
2015,04,08,01,18,4.40
2015,04,08,01,19,4.40
2015,04,08,01,20,4.40
2015,04,08,01,21,4.40
2015,04,08,01,22,4.40
2015,04,08,01,23,4.40
2015,04,08,01,24,4.40
2015,04,08,01,25,4.40
2015,04,08,01,26,4.40
2015,04,08,01,27,4.40
2015,04,08,01,28,4.40
2015,04,08,01,29,4.30
2015,04,08,01,30,4.30
2015,04,08,01,31,4.30
2015,04,08,01,32,4.30
2015,04,08,01,33,4.30
2015,04,08,01,34,4.30
2015,04,08,01,35,4.20
2015,04,08,01,36,4.20
2015,04,08,01,37,4.20
2015,04,08,01,38,4.20
2015,04,08,01,39,4.20
2015,04,08,01,40,4.10
2015,04,08,01,41,4.10
2015,04,08,01,42,4.10
2015,04,08,01,43,4.10
2015,04,08,01,44,4.10
2015,04,08,01,45,4.00
2015,04,08,01,46,4.00
2015,04,08,01,47,4.00
2015,04,08,01,48,4.00
2015,04,08,01,49,4.00
2015,04,08,01,50,4.00
2015,04,08,01,51,4.00
2015,04,08,01,52,4.00
2015,04,08,01,53,4.00
2015,04,08,01,54,4.00
2015,04,08,01,55,4.00
2015,04,08,01,56,4.00
2015,04,08,01,57,3.90
2015,04,08,01,58,3.90
2015,04,08,01,59,3.90
2015,04,08,02,00,3.90
2015,04,08,02,01,3.90
2015,04,08,02,02,3.90
2015,04,08,02,03,3.90
2015,04,08,02,04,3.90
2015,04,08,02,05,3.90
2015,04,08,02,06,3.90
2015,04,08,02,07,3.90
2015,04,08,02,08,3.90
2015,04,08,02,09,3.90
2015,04,08,02,10,3.90
2015,04,08,02,11,3.80
2015,04,08,02,12,3.80
2015,04,08,02,13,3.80
2015,04,08,02,14,3.80
2015,04,08,02,15,3.70
2015,04,08,02,16,3.70
2015,04,08,02,17,3.70
2015,04,08,02,18,3.70
2015,04,08,02,19,3.70
2015,04,08,02,20,3.60
2015,04,08,02,21,3.60
2015,04,08,02,22,3.60
2015,04,08,02,23,3.60
2015,04,08,02,24,3.60
2015,04,08,02,25,3.50
2015,04,08,02,26,3.50
2015,04,08,02,27,3.50
2015,04,08,02,28,3.50
2015,04,08,02,29,3.40
2015,04,08,02,30,3.40
2015,04,08,02,31,3.40
2015,04,08,02,32,3.40
2015,04,08,02,33,3.40
2015,04,08,02,34,3.40
2015,04,08,02,35,3.30
2015,04,08,02,36,3.30
2015,04,08,02,37,3.30
2015,04,08,02,38,3.30
2015,04,08,02,39,3.30
2015,04,08,02,40,3.30
2015,04,08,02,41,3.30
2015,04,08,02,42,3.30
2015,04,08,02,43,3.30
2015,04,08,02,44,3.30
2015,04,08,02,45,3.30
2015,04,08,02,46,3.30
2015,04,08,02,47,3.30
2015,04,08,02,48,3.30
2015,04,08,02,49,3.30
2015,04,08,02,50,3.30
2015,04,08,02,51,3.30
2015,04,08,02,52,3.30
2015,04,08,02,53,3.30
2015,04,08,02,54,3.30
2015,04,08,02,55,3.30
2015,04,08,02,56,3.20
2015,04,08,02,57,3.20
2015,04,08,02,58,3.30
2015,04,08,02,59,3.30
2015,04,08,03,00,3.30
2015,04,08,03,01,3.30
2015,04,08,03,02,3.40
2015,04,08,03,03,3.40
2015,04,08,03,04,3.40
2015,04,08,03,05,3.40
2015,04,08,03,06,3.40
2015,04,08,03,07,3.40
2015,04,08,03,08,3.30
2015,04,08,03,09,3.30
2015,04,08,03,10,3.30
2015,04,08,03,11,3.30
2015,04,08,03,12,3.30
2015,04,08,03,13,3.20
2015,04,08,03,14,3.20
2015,04,08,03,15,3.20
2015,04,08,03,16,3.20
2015,04,08,03,17,3.10
2015,04,08,03,18,3.10
2015,04,08,03,19,3.00
2015,04,08,03,20,3.00
2015,04,08,03,21,3.00
2015,04,08,03,22,3.00
2015,04,08,03,23,2.90
2015,04,08,03,24,2.90
2015,04,08,03,25,2.90
2015,04,08,03,26,2.90
2015,04,08,03,27,2.80
2015,04,08,03,28,2.80
2015,04,08,03,29,2.80
2015,04,08,03,30,2.80
2015,04,08,03,31,2.80
2015,04,08,03,32,2.80
2015,04,08,03,33,2.70
2015,04,08,03,34,2.70
2015,04,08,03,35,2.70
2015,04,08,03,36,2.70
2015,04,08,03,37,2.70
2015,04,08,03,38,2.70
2015,04,08,03,39,2.70
2015,04,08,03,40,2.70
2015,04,08,03,41,2.70
2015,04,08,03,42,2.70
2015,04,08,03,43,2.60
2015,04,08,03,44,2.60
2015,04,08,03,45,2.60
2015,04,08,03,46,2.60
2015,04,08,03,47,2.60
2015,04,08,03,48,2.60
2015,04,08,03,49,2.60
2015,04,08,03,50,2.60
2015,04,08,03,51,2.50
2015,04,08,03,52,2.50
2015,04,08,03,53,2.50
2015,04,08,03,54,2.50
2015,04,08,03,55,2.50
2015,04,08,03,56,2.40
2015,04,08,03,57,2.40
2015,04,08,03,58,2.40
2015,04,08,03,59,2.40
2015,04,08,04,00,2.30
2015,04,08,04,01,2.30
2015,04,08,04,02,2.30
2015,04,08,04,03,2.30
2015,04,08,04,04,2.30
2015,04,08,04,05,2.30
2015,04,08,04,06,2.30
2015,04,08,04,07,2.30
2015,04,08,04,08,2.30
2015,04,08,04,09,2.30
2015,04,08,04,10,2.30
2015,04,08,04,11,2.30
2015,04,08,04,12,2.30
2015,04,08,04,13,2.30
2015,04,08,04,14,2.30
2015,04,08,04,15,2.20
2015,04,08,04,16,2.20
2015,04,08,04,17,2.20
2015,04,08,04,18,2.20
2015,04,08,04,19,2.20
2015,04,08,04,20,2.20
2015,04,08,04,21,2.20
2015,04,08,04,22,2.20
2015,04,08,04,23,2.20
2015,04,08,04,24,2.20
2015,04,08,04,25,2.20
2015,04,08,04,26,2.20
2015,04,08,04,27,2.10
2015,04,08,04,28,2.10
2015,04,08,04,29,2.10
2015,04,08,04,30,2.10
2015,04,08,04,31,2.10
2015,04,08,04,32,2.10
2015,04,08,04,33,2.10
2015,04,08,04,34,2.10
2015,04,08,04,35,2.10
2015,04,08,04,36,2.10
2015,04,08,04,37,2.10
2015,04,08,04,38,2.10
2015,04,08,04,39,2.10
2015,04,08,04,40,2.00
2015,04,08,04,41,2.00
2015,04,08,04,42,2.00
2015,04,08,04,43,2.00
2015,04,08,04,44,2.00
2015,04,08,04,45,2.00
2015,04,08,04,46,2.00
2015,04,08,04,47,2.00
2015,04,08,04,48,1.90
2015,04,08,04,49,1.90
2015,04,08,04,50,1.90
2015,04,08,04,51,1.90
2015,04,08,04,52,1.90
2015,04,08,04,53,1.90
2015,04,08,04,54,1.90
2015,04,08,04,55,1.90
2015,04,08,04,56,1.90
2015,04,08,04,57,1.80
2015,04,08,04,58,1.80
2015,04,08,04,59,1.80
2015,04,08,05,00,1.80
2015,04,08,05,01,1.80
2015,04,08,05,02,1.90
2015,04,08,05,03,1.80
2015,04,08,05,04,1.80
2015,04,08,05,05,1.80
2015,04,08,05,06,1.80
2015,04,08,05,07,1.80
2015,04,08,05,08,1.80
2015,04,08,05,09,1.80
2015,04,08,05,10,1.80
2015,04,08,05,11,1.80
2015,04,08,05,12,1.80
2015,04,08,05,13,1.80
2015,04,08,05,14,1.70
2015,04,08,05,15,1.70
2015,04,08,05,16,1.70
2015,04,08,05,17,1.70
2015,04,08,05,18,1.70
2015,04,08,05,19,1.60
2015,04,08,05,20,1.60
2015,04,08,05,21,1.60
2015,04,08,05,22,1.60
2015,04,08,05,23,1.60
2015,04,08,05,24,1.60
2015,04,08,05,25,1.60
2015,04,08,05,26,1.60
2015,04,08,05,27,1.60
2015,04,08,05,28,1.60
2015,04,08,05,29,1.60
2015,04,08,05,30,1.50
2015,04,08,05,31,1.50
2015,04,08,05,32,1.50
2015,04,08,05,33,1.50
2015,04,08,05,34,1.50
2015,04,08,05,35,1.40
2015,04,08,05,36,1.40
2015,04,08,05,37,1.40
2015,04,08,05,38,1.40
2015,04,08,05,39,1.40
2015,04,08,05,40,1.40
2015,04,08,05,41,1.40
2015,04,08,05,42,1.40
2015,04,08,05,43,1.30
2015,04,08,05,44,1.40
2015,04,08,05,45,1.30
2015,04,08,05,46,1.30
2015,04,08,05,47,1.30
2015,04,08,05,48,1.30
2015,04,08,05,49,1.30
2015,04,08,05,50,1.30
2015,04,08,05,51,1.30
2015,04,08,05,52,1.30
2015,04,08,05,53,1.30
2015,04,08,05,54,1.30
2015,04,08,05,55,1.30
2015,04,08,05,56,1.30
2015,04,08,05,57,1.30
2015,04,08,05,58,1.30
2015,04,08,05,59,1.30
2015,04,08,06,00,1.30
2015,04,08,06,01,1.30
2015,04,08,06,02,1.20
2015,04,08,06,03,1.20
2015,04,08,06,04,1.20
2015,04,08,06,05,1.20
2015,04,08,06,06,1.20
2015,04,08,06,07,1.20
2015,04,08,06,08,1.20
2015,04,08,06,09,1.20
2015,04,08,06,10,1.20
2015,04,08,06,11,1.20
2015,04,08,06,12,1.20
2015,04,08,06,13,1.20
2015,04,08,06,14,1.20
2015,04,08,06,15,1.20
2015,04,08,06,16,1.20
2015,04,08,06,17,1.20
2015,04,08,06,18,1.20
2015,04,08,06,19,1.20
2015,04,08,06,20,1.20
2015,04,08,06,21,1.20
2015,04,08,06,22,1.20
2015,04,08,06,23,1.10
2015,04,08,06,24,1.10
2015,04,08,06,25,1.10
2015,04,08,06,26,1.10
2015,04,08,06,27,1.10
2015,04,08,06,28,1.10
2015,04,08,06,29,1.10
2015,04,08,06,30,1.10
2015,04,08,06,31,1.10
2015,04,08,06,32,1.10
2015,04,08,06,33,1.10
2015,04,08,06,34,1.10
2015,04,08,06,35,1.10
2015,04,08,06,36,1.10
2015,04,08,06,37,1.10
2015,04,08,06,38,1.10
2015,04,08,06,39,1.00
2015,04,08,06,40,1.00
2015,04,08,06,41,1.00
2015,04,08,06,42,1.00
2015,04,08,06,43,1.00
2015,04,08,06,44,0.90
2015,04,08,06,45,0.90
2015,04,08,06,46,0.90
2015,04,08,06,47,0.90
2015,04,08,06,48,0.90
2015,04,08,06,49,0.90
2015,04,08,06,50,0.90
2015,04,08,06,51,0.90
2015,04,08,06,52,0.90
2015,04,08,06,53,1.00
2015,04,08,06,54,0.90
2015,04,08,06,55,1.00
2015,04,08,06,56,0.90
2015,04,08,06,57,1.00
2015,04,08,06,58,1.00
2015,04,08,06,59,1.00
2015,04,08,07,00,0.90
2015,04,08,07,01,1.00
2015,04,08,07,02,1.00
2015,04,08,07,03,1.00
2015,04,08,07,04,1.00
2015,04,08,07,05,1.00
2015,04,08,07,06,1.00
2015,04,08,07,07,1.00
2015,04,08,07,08,1.00
2015,04,08,07,09,1.00
2015,04,08,07,10,1.00
2015,04,08,07,11,1.00
2015,04,08,07,12,1.00
2015,04,08,07,13,1.10
2015,04,08,07,14,1.10
2015,04,08,07,15,1.10
2015,04,08,07,16,1.10
2015,04,08,07,17,1.10
2015,04,08,07,18,1.10
2015,04,08,07,19,1.10
2015,04,08,07,20,1.20
2015,04,08,07,21,1.20
2015,04,08,07,22,1.20
2015,04,08,07,23,1.20
2015,04,08,07,24,1.30
2015,04,08,07,25,1.30
2015,04,08,07,26,1.30
2015,04,08,07,27,1.30
2015,04,08,07,28,1.40
2015,04,08,07,29,1.40
2015,04,08,07,30,1.40
2015,04,08,07,31,1.50
2015,04,08,07,32,1.50
2015,04,08,07,33,1.60
2015,04,08,07,34,1.60
2015,04,08,07,35,1.60
2015,04,08,07,36,1.70
2015,04,08,07,37,1.70
2015,04,08,07,38,1.70
2015,04,08,07,39,1.80
2015,04,08,07,40,1.80
2015,04,08,07,41,1.90
2015,04,08,07,42,1.90
2015,04,08,07,43,2.00
2015,04,08,07,44,2.00
2015,04,08,07,45,2.10
2015,04,08,07,46,2.10
2015,04,08,07,47,2.10
2015,04,08,07,48,2.20
2015,04,08,07,49,2.20
2015,04,08,07,50,2.20
2015,04,08,07,51,2.30
2015,04,08,07,52,2.30
2015,04,08,07,53,2.30
2015,04,08,07,54,2.30
2015,04,08,07,55,2.40
2015,04,08,07,56,2.40
2015,04,08,07,57,2.50
2015,04,08,07,58,2.50
2015,04,08,07,59,2.60
2015,04,08,08,00,2.70
2015,04,08,08,01,2.70
2015,04,08,08,02,2.80
2015,04,08,08,03,2.90
2015,04,08,08,04,2.90
2015,04,08,08,05,3.00
2015,04,08,08,06,3.10
2015,04,08,08,07,3.20
2015,04,08,08,08,3.30
2015,04,08,08,09,3.30
2015,04,08,08,10,3.40
2015,04,08,08,11,3.50
2015,04,08,08,12,3.60
2015,04,08,08,13,3.70
2015,04,08,08,14,3.70
2015,04,08,08,15,3.80
2015,04,08,08,16,3.90
2015,04,08,08,17,3.90
2015,04,08,08,18,4.00
2015,04,08,08,19,4.10
2015,04,08,08,20,4.10
2015,04,08,08,21,4.20
2015,04,08,08,22,4.20
2015,04,08,08,23,4.30
2015,04,08,08,24,4.40
2015,04,08,08,25,4.40
2015,04,08,08,26,4.50
2015,04,08,08,27,4.60
2015,04,08,08,28,4.60
2015,04,08,08,29,4.70
2015,04,08,08,30,4.80
2015,04,08,08,31,4.80
2015,04,08,08,32,4.90
2015,04,08,08,33,4.90
2015,04,08,08,34,5.00
2015,04,08,08,35,5.10
2015,04,08,08,36,5.20
2015,04,08,08,37,5.20
2015,04,08,08,38,5.30
2015,04,08,08,39,5.30
2015,04,08,08,40,5.40
2015,04,08,08,41,5.50
2015,04,08,08,42,5.60
2015,04,08,08,43,5.60
2015,04,08,08,44,5.70
2015,04,08,08,45,5.80
2015,04,08,08,46,5.80
2015,04,08,08,47,5.90
2015,04,08,08,48,5.90
2015,04,08,08,49,6.00
2015,04,08,08,50,6.00
2015,04,08,08,51,6.10
2015,04,08,08,52,6.20
2015,04,08,08,53,6.20
2015,04,08,08,54,6.30
2015,04,08,08,55,6.30
2015,04,08,08,56,6.40
2015,04,08,08,57,6.40
2015,04,08,08,58,6.50
2015,04,08,08,59,6.60
2015,04,08,09,00,6.70
2015,04,08,09,01,6.80
2015,04,08,09,02,6.80
2015,04,08,09,03,6.90
2015,04,08,09,04,7.00
2015,04,08,09,05,7.10
2015,04,08,09,06,7.20
2015,04,08,09,07,7.30
2015,04,08,09,08,7.40
2015,04,08,09,09,7.50
2015,04,08,09,10,7.60
2015,04,08,09,11,7.70
2015,04,08,09,12,7.80
2015,04,08,09,13,7.90
2015,04,08,09,14,8.00
2015,04,08,09,15,8.10
2015,04,08,09,16,8.20
2015,04,08,09,17,8.20
2015,04,08,09,18,8.30
2015,04,08,09,19,8.40
2015,04,08,09,20,8.50
2015,04,08,09,21,8.50
2015,04,08,09,22,8.60
2015,04,08,09,23,8.70
2015,04,08,09,24,8.70
2015,04,08,09,25,8.80
2015,04,08,09,26,8.80
2015,04,08,09,27,8.90
2015,04,08,09,28,8.90
2015,04,08,09,29,8.90
2015,04,08,09,30,9.00
2015,04,08,09,31,9.00
2015,04,08,09,32,9.00
2015,04,08,09,33,9.00
2015,04,08,09,34,9.10
2015,04,08,09,35,9.10
2015,04,08,09,36,9.20
2015,04,08,09,37,9.20
2015,04,08,09,38,9.20
2015,04,08,09,39,9.30
2015,04,08,09,40,9.30
2015,04,08,09,41,9.30
2015,04,08,09,42,9.30
2015,04,08,09,43,9.40
2015,04,08,09,44,9.40
2015,04,08,09,45,9.40
2015,04,08,09,46,9.40
2015,04,08,09,47,9.40
2015,04,08,09,48,9.40
2015,04,08,09,49,9.40
2015,04,08,09,50,9.50
2015,04,08,09,51,9.50
2015,04,08,09,52,9.50
2015,04,08,09,53,9.50
2015,04,08,09,54,9.60
2015,04,08,09,55,9.60
2015,04,08,09,56,9.70
2015,04,08,09,57,9.70
2015,04,08,09,58,9.80
2015,04,08,09,59,9.80
2015,04,08,10,00,9.80
2015,04,08,10,01,9.90
2015,04,08,10,02,9.90
2015,04,08,10,03,9.90
2015,04,08,10,04,10.00
2015,04,08,10,05,10.00
2015,04,08,10,06,10.10
2015,04,08,10,07,10.10
2015,04,08,10,08,10.10
2015,04,08,10,09,10.20
2015,04,08,10,10,10.20
2015,04,08,10,11,10.20
2015,04,08,10,12,10.20
2015,04,08,10,13,10.30
2015,04,08,10,14,10.30
2015,04,08,10,15,10.30
2015,04,08,10,16,10.30
2015,04,08,10,17,10.40
2015,04,08,10,18,10.40
2015,04,08,10,19,10.40
2015,04,08,10,20,10.50
2015,04,08,10,21,10.60
2015,04,08,10,22,10.60
2015,04,08,10,23,10.70
2015,04,08,10,24,10.70
2015,04,08,10,25,10.80
2015,04,08,10,26,10.80
2015,04,08,10,27,10.80
2015,04,08,10,28,10.80
2015,04,08,10,29,10.80
2015,04,08,10,30,10.90
2015,04,08,10,31,10.90
2015,04,08,10,32,10.90
2015,04,08,10,33,11.00
2015,04,08,10,34,11.10
2015,04,08,10,35,11.10
2015,04,08,10,36,11.20
2015,04,08,10,37,11.20
2015,04,08,10,38,11.30
2015,04,08,10,39,11.30
2015,04,08,10,40,11.40
2015,04,08,10,41,11.40
2015,04,08,10,42,11.40
2015,04,08,10,43,11.50
2015,04,08,10,44,11.50
2015,04,08,10,45,11.60
2015,04,08,10,46,11.60
2015,04,08,10,47,11.70
2015,04,08,10,48,11.70
2015,04,08,10,49,11.80
2015,04,08,10,50,11.80
2015,04,08,10,51,11.90
2015,04,08,10,52,11.90
2015,04,08,10,53,12.00
2015,04,08,10,54,12.10
2015,04,08,10,55,12.10
2015,04,08,10,56,12.10
2015,04,08,10,57,12.20
2015,04,08,10,58,12.20
2015,04,08,10,59,12.20
2015,04,08,11,00,12.20
2015,04,08,11,01,12.20
2015,04,08,11,02,12.20
2015,04,08,11,03,12.20
2015,04,08,11,04,12.20
2015,04,08,11,05,12.30
2015,04,08,11,06,12.30
2015,04,08,11,07,12.30
2015,04,08,11,08,12.40
2015,04,08,11,09,12.40
2015,04,08,11,10,12.40
2015,04,08,11,11,12.40
2015,04,08,11,12,12.40
2015,04,08,11,13,12.50
2015,04,08,11,14,12.50
2015,04,08,11,15,12.60
2015,04,08,11,16,12.60
2015,04,08,11,17,12.70
2015,04,08,11,18,12.80
2015,04,08,11,19,12.80
2015,04,08,11,20,12.80
2015,04,08,11,21,12.80
2015,04,08,11,22,12.80
2015,04,08,11,23,12.80
2015,04,08,11,24,12.80
2015,04,08,11,25,12.80
2015,04,08,11,26,12.70
2015,04,08,11,27,12.70
2015,04,08,11,28,12.70
2015,04,08,11,29,12.70
2015,04,08,11,30,12.70
2015,04,08,11,31,12.60
2015,04,08,11,32,12.60
2015,04,08,11,33,12.60
2015,04,08,11,34,12.50
2015,04,08,11,35,12.40
2015,04,08,11,36,12.40
2015,04,08,11,37,12.30
2015,04,08,11,38,12.30
2015,04,08,11,39,12.30
2015,04,08,11,40,12.30
2015,04,08,11,41,12.30
2015,04,08,11,42,12.30
2015,04,08,11,43,12.30
2015,04,08,11,44,12.20
2015,04,08,11,45,12.20
2015,04,08,11,46,12.20
2015,04,08,11,47,12.30
2015,04,08,11,48,12.30
2015,04,08,11,49,12.30
2015,04,08,11,50,12.30
2015,04,08,11,51,12.30
2015,04,08,11,52,12.30
2015,04,08,11,53,12.30
2015,04,08,11,54,12.30
2015,04,08,11,55,12.30
2015,04,08,11,56,12.30
2015,04,08,11,57,12.30
2015,04,08,11,58,12.40
2015,04,08,11,59,12.40
2015,04,08,12,00,12.40
2015,04,08,12,01,12.30
2015,04,08,12,02,12.30
2015,04,08,12,03,12.30
2015,04,08,12,04,12.20
2015,04,08,12,05,12.10
2015,04,08,12,06,12.00
2015,04,08,12,07,11.90
2015,04,08,12,08,11.90
2015,04,08,12,09,11.90
2015,04,08,12,10,11.90
2015,04,08,12,11,12.00
2015,04,08,12,12,11.90
2015,04,08,12,13,11.90
2015,04,08,12,14,12.00
2015,04,08,12,15,12.00
2015,04,08,12,16,12.10
2015,04,08,12,17,12.20
2015,04,08,12,18,12.20
2015,04,08,12,19,12.30
2015,04,08,12,20,12.30
2015,04,08,12,21,12.40
2015,04,08,12,22,12.50
2015,04,08,12,23,12.50
2015,04,08,12,24,12.60
2015,04,08,12,25,12.60
2015,04,08,12,26,12.60
2015,04,08,12,27,12.60
2015,04,08,12,28,12.60
2015,04,08,12,29,12.60
2015,04,08,12,30,12.60
2015,04,08,12,31,12.60
2015,04,08,12,32,12.70
2015,04,08,12,33,12.70
2015,04,08,12,34,12.80
2015,04,08,12,35,12.80
2015,04,08,12,36,12.80
2015,04,08,12,37,12.90
2015,04,08,12,38,12.90
2015,04,08,12,39,13.00
2015,04,08,12,40,13.10
2015,04,08,12,41,13.10
2015,04,08,12,42,13.10
2015,04,08,12,43,13.20
2015,04,08,12,44,13.20
2015,04,08,12,45,13.20
2015,04,08,12,46,13.30
2015,04,08,12,47,13.30
2015,04,08,12,48,13.30
2015,04,08,12,49,13.30
2015,04,08,12,50,13.30
2015,04,08,12,51,13.30
2015,04,08,12,52,13.30
2015,04,08,12,53,13.30
2015,04,08,12,54,13.30
2015,04,08,12,55,13.30
2015,04,08,12,56,13.40
2015,04,08,12,57,13.40
2015,04,08,12,58,13.40
2015,04,08,12,59,13.40
2015,04,08,13,00,13.40
2015,04,08,13,01,13.40
2015,04,08,13,02,13.30
2015,04,08,13,03,13.30
2015,04,08,13,04,13.30
2015,04,08,13,05,13.20
2015,04,08,13,06,13.10
2015,04,08,13,07,13.00
2015,04,08,13,08,12.90
2015,04,08,13,09,12.80
2015,04,08,13,10,12.70
2015,04,08,13,11,12.70
2015,04,08,13,12,12.60
2015,04,08,13,13,12.60
2015,04,08,13,14,12.60
2015,04,08,13,15,12.50
2015,04,08,13,16,12.60
2015,04,08,13,17,12.60
2015,04,08,13,18,12.70
2015,04,08,13,19,12.70
2015,04,08,13,20,12.70
2015,04,08,13,21,12.70
2015,04,08,13,22,12.80
2015,04,08,13,23,12.80
2015,04,08,13,24,12.80
2015,04,08,13,25,12.80
2015,04,08,13,26,12.90
2015,04,08,13,27,12.90
2015,04,08,13,28,13.00
2015,04,08,13,29,13.10
2015,04,08,13,30,13.10
2015,04,08,13,31,13.20
2015,04,08,13,32,13.20
2015,04,08,13,33,13.30
2015,04,08,13,34,13.40
2015,04,08,13,35,13.50
2015,04,08,13,36,13.60
2015,04,08,13,37,13.70
2015,04,08,13,38,13.70
2015,04,08,13,39,13.70
2015,04,08,13,40,13.80
2015,04,08,13,41,13.80
2015,04,08,13,42,13.90
2015,04,08,13,43,14.00
2015,04,08,13,44,14.00
2015,04,08,13,45,14.10
2015,04,08,13,46,14.10
2015,04,08,13,47,14.20
2015,04,08,13,48,14.30
2015,04,08,13,49,14.30
2015,04,08,13,50,14.30
2015,04,08,13,51,14.30
2015,04,08,13,52,14.40
2015,04,08,13,53,14.40
2015,04,08,13,54,14.50
2015,04,08,13,55,14.50
2015,04,08,13,56,14.60
2015,04,08,13,57,14.60
2015,04,08,13,58,14.60
2015,04,08,13,59,14.50
2015,04,08,14,00,14.40
2015,04,08,14,01,14.40
2015,04,08,14,02,14.40
2015,04,08,14,03,14.40
2015,04,08,14,04,14.40
2015,04,08,14,05,14.40
2015,04,08,14,06,14.50
2015,04,08,14,07,14.50
2015,04,08,14,08,14.60
2015,04,08,14,09,14.60
2015,04,08,14,10,14.50
2015,04,08,14,11,14.40
2015,04,08,14,12,14.30
2015,04,08,14,13,14.20
2015,04,08,14,14,14.20
2015,04,08,14,15,14.20
2015,04,08,14,16,14.30
2015,04,08,14,17,14.30
2015,04,08,14,18,14.40
2015,04,08,14,19,14.40
2015,04,08,14,20,14.40
2015,04,08,14,21,14.40
2015,04,08,14,22,14.40
2015,04,08,14,23,14.50
2015,04,08,14,24,14.50
2015,04,08,14,25,14.50
2015,04,08,14,26,14.60
2015,04,08,14,27,14.60
2015,04,08,14,28,14.70
2015,04,08,14,29,14.70
2015,04,08,14,30,14.70
2015,04,08,14,31,14.70
2015,04,08,14,32,14.70
2015,04,08,14,33,14.70
2015,04,08,14,34,14.80
2015,04,08,14,35,14.80
2015,04,08,14,36,14.90
2015,04,08,14,37,14.90
2015,04,08,14,38,14.90
2015,04,08,14,39,14.90
2015,04,08,14,40,14.90
2015,04,08,14,41,14.90
2015,04,08,14,42,14.90
2015,04,08,14,43,14.90
2015,04,08,14,44,14.90
2015,04,08,14,45,14.90
2015,04,08,14,46,15.00
2015,04,08,14,47,15.00
2015,04,08,14,48,15.00
2015,04,08,14,49,15.00
2015,04,08,14,50,15.00
2015,04,08,14,51,15.10
2015,04,08,14,52,15.10
2015,04,08,14,53,15.20
2015,04,08,14,54,15.20
2015,04,08,14,55,15.20
2015,04,08,14,56,15.30
2015,04,08,14,57,15.30
2015,04,08,14,58,15.40
2015,04,08,14,59,15.40
2015,04,08,15,00,15.40
2015,04,08,15,01,15.40
2015,04,08,15,02,15.40
2015,04,08,15,03,15.40
2015,04,08,15,04,15.40
2015,04,08,15,05,15.30
2015,04,08,15,06,15.30
2015,04,08,15,07,15.30
2015,04,08,15,08,15.30
2015,04,08,15,09,15.30
2015,04,08,15,10,15.40
2015,04,08,15,11,15.50
2015,04,08,15,12,15.60
2015,04,08,15,13,15.70
2015,04,08,15,14,15.70
2015,04,08,15,15,15.70
2015,04,08,15,16,15.70
2015,04,08,15,17,15.70
2015,04,08,15,18,15.70
2015,04,08,15,19,15.70
2015,04,08,15,20,15.60
2015,04,08,15,21,15.60
2015,04,08,15,22,15.60
2015,04,08,15,23,15.60
2015,04,08,15,24,15.70
2015,04,08,15,25,15.70
2015,04,08,15,26,15.80
2015,04,08,15,27,15.80
2015,04,08,15,28,15.80
2015,04,08,15,29,15.90
2015,04,08,15,30,15.90
2015,04,08,15,31,15.80
2015,04,08,15,32,15.70
2015,04,08,15,33,15.60
2015,04,08,15,34,15.60
2015,04,08,15,35,15.60
2015,04,08,15,36,15.60
2015,04,08,15,37,15.70
2015,04,08,15,38,15.70
2015,04,08,15,39,15.70
2015,04,08,15,40,15.80
2015,04,08,15,41,15.80
2015,04,08,15,42,15.90
2015,04,08,15,43,15.90
2015,04,08,15,44,15.90
2015,04,08,15,45,15.90
2015,04,08,15,46,16.00
2015,04,08,15,47,16.00
2015,04,08,15,48,16.10
2015,04,08,15,49,16.10
2015,04,08,15,50,16.10
2015,04,08,15,51,16.00
2015,04,08,15,52,16.00
2015,04,08,15,53,15.90
2015,04,08,15,54,15.90
2015,04,08,15,55,15.90
2015,04,08,15,56,16.00
2015,04,08,15,57,16.10
2015,04,08,15,58,16.20
2015,04,08,15,59,16.20
2015,04,08,16,00,16.30
2015,04,08,16,01,16.40
2015,04,08,16,02,16.40
2015,04,08,16,03,16.50
2015,04,08,16,04,16.50
2015,04,08,16,05,16.50
2015,04,08,16,06,16.50
2015,04,08,16,07,16.60
2015,04,08,16,08,16.60
2015,04,08,16,09,16.60
2015,04,08,16,10,16.70
2015,04,08,16,11,16.70
2015,04,08,16,12,16.80
2015,04,08,16,13,16.80
2015,04,08,16,14,16.80
2015,04,08,16,15,16.70
2015,04,08,16,16,16.70
2015,04,08,16,17,16.70
2015,04,08,16,18,16.70
2015,04,08,16,19,16.60
2015,04,08,16,20,16.60
2015,04,08,16,21,16.70
2015,04,08,16,22,16.70
2015,04,08,16,23,16.70
2015,04,08,16,24,16.80
2015,04,08,16,25,16.80
2015,04,08,16,26,16.80
2015,04,08,16,27,16.80
2015,04,08,16,28,16.70
2015,04,08,16,29,16.70
2015,04,08,16,30,16.70
2015,04,08,16,31,16.60
2015,04,08,16,32,16.50
2015,04,08,16,33,16.40
2015,04,08,16,34,16.30
2015,04,08,16,35,16.30
2015,04,08,16,36,16.30
2015,04,08,16,37,16.30
2015,04,08,16,38,16.30
2015,04,08,16,39,16.30
2015,04,08,16,40,16.20
2015,04,08,16,41,16.20
2015,04,08,16,42,16.20
2015,04,08,16,43,16.20
2015,04,08,16,44,16.30
2015,04,08,16,45,16.30
2015,04,08,16,46,16.20
2015,04,08,16,47,16.20
2015,04,08,16,48,16.20
2015,04,08,16,49,16.20
2015,04,08,16,50,16.20
2015,04,08,16,51,16.20
2015,04,08,16,52,16.20
2015,04,08,16,53,16.20
2015,04,08,16,54,16.20
2015,04,08,16,55,16.20
2015,04,08,16,56,16.20
2015,04,08,16,57,16.20
2015,04,08,16,58,16.30
2015,04,08,16,59,16.40
2015,04,08,17,00,16.50
2015,04,08,17,01,16.60
2015,04,08,17,02,16.60
2015,04,08,17,03,16.70
2015,04,08,17,04,16.70
2015,04,08,17,05,16.80
2015,04,08,17,06,16.80
2015,04,08,17,07,16.90
2015,04,08,17,08,16.90
2015,04,08,17,09,16.80
2015,04,08,17,10,16.80
2015,04,08,17,11,16.80
2015,04,08,17,12,16.80
2015,04,08,17,13,16.70
2015,04,08,17,14,16.70
2015,04,08,17,15,16.60
2015,04,08,17,16,16.50
2015,04,08,17,17,16.40
2015,04,08,17,18,16.30
2015,04,08,17,19,16.30
2015,04,08,17,20,16.20
2015,04,08,17,21,16.20
2015,04,08,17,22,16.20
2015,04,08,17,23,16.20
2015,04,08,17,24,16.20
2015,04,08,17,25,16.20
2015,04,08,17,26,16.20
2015,04,08,17,27,16.20
2015,04,08,17,28,16.20
2015,04,08,17,29,16.30
2015,04,08,17,30,16.30
2015,04,08,17,31,16.30
2015,04,08,17,32,16.30
2015,04,08,17,33,16.30
2015,04,08,17,34,16.30
2015,04,08,17,35,16.30
2015,04,08,17,36,16.30
2015,04,08,17,37,16.30
2015,04,08,17,38,16.40
2015,04,08,17,39,16.40
2015,04,08,17,40,16.40
2015,04,08,17,41,16.40
2015,04,08,17,42,16.40
2015,04,08,17,43,16.50
2015,04,08,17,44,16.50
2015,04,08,17,45,16.50